Grafton, ND

9:12 PM CST on December 10, 2017 (GMT -0600)
Grafton Municipal

Weather History for KGAF - January, 2013

Change the Weather History Date:

Wednesday, January 30, 2013

  Actual Average Record
Temperature  
Mean Temperature 2 °F -  
Max Temperature 8 °F 17 °F 41 °F (1964)
Min Temperature -4 °F -1 °F -37 °F (1950)
Degree Days  
Heating Degree Days 63    
Moisture  
Dew Point -1 °F    
Average Humidity 78    
Maximum Humidity 85    
Minimum Humidity 71    
Precipitation  
Precipitation 0.00 in - - ()
Sea Level Pressure  
Sea Level Pressure 29.93 in    
Wind  
Wind Speed 17 mph (NNW)    
Max Wind Speed 22 mph    
Max Gust Speed 31 mph    
Visibility 5 miles    
Events Rain , Snow    
Averages and records for this station are not official NWS values.
T = Trace of Precipitation, MM = Missing Value Source: NWS Daily Summary

Daily Weather History Graph

Daily Weather History Graph

Search for Another Location

Airport or City:

Trip Planner

Search our weather history database for the weather conditions in past years. The results will help you decide how hot, cold, wet, or windy it might be!

Date:

Astronomy

Jan. 30, 2013 Rise Set
Actual Time 8:00 AM CST 5:25 PM CST
Civil Twilight 7:26 AM CST 5:59 PM CST
Nautical Twilight 6:49 AM CST 6:37 PM CST
Astronomical Twilight 6:12 AM CST 7:13 PM CST
Moon 9:50 PM CST (1/30) 9:07 AM CST (1/30)
Length of Visible Light 10h 32m
Length of Day
9h 25m
Waning Gibbous, 87% of the Moon is Illuminated
Jan 30
Waning Gibbous
Feb 3
Last Quarter
Feb 10
New
Feb 17
First Quarter
Feb 25
Full

Hourly Weather History & Observations

Time (CST) Temp. Windchill Dew Point Humidity Pressure Visibility Wind Dir Wind Speed Gust Speed Precip Events Conditions
12:15 AM 8.6 °F -11.4 °F 3.2 °F 79% 29.98 in 10.0 mi NNW 21.9 mph 28.8 mph N/A   Overcast
12:35 AM 8.6 °F -11.4 °F 1.4 °F 73% 29.99 in 8.0 mi North 21.9 mph 31.1 mph N/A   Overcast
12:55 AM 6.8 °F -12.4 °F 1.4 °F 79% 29.98 in 9.0 mi North 18.4 mph - N/A   Overcast
1:15 AM 6.8 °F -12.9 °F 1.4 °F 79% 29.97 in 10.0 mi NNW 19.6 mph 26.5 mph N/A   Overcast
1:35 AM 6.8 °F -12.4 °F 1.4 °F 79% 29.96 in 10.0 mi North 18.4 mph - N/A   Overcast
1:55 AM 6.8 °F -13.8 °F 1.4 °F 79% 29.97 in 10.0 mi NNW 21.9 mph 27.6 mph N/A   Overcast
2:15 AM 6.8 °F -11.8 °F 1.4 °F 79% 29.96 in 10.0 mi NNW 17.3 mph 23.0 mph N/A   Overcast
2:35 AM 6.8 °F -12.4 °F 3.2 °F 85% 29.95 in 10.0 mi NNW 18.4 mph - N/A Snow Light Snow
2:55 AM 8.6 °F -10.0 °F 3.2 °F 79% 29.95 in 8.0 mi NNW 18.4 mph 21.9 mph N/A Snow Light Snow
3:15 AM 8.6 °F -10.5 °F 3.2 °F 79% 29.93 in 10.0 mi NNW 19.6 mph - N/A   Overcast
3:35 AM 8.6 °F -8.9 °F 3.2 °F 79% 29.94 in 10.0 mi NNW 16.1 mph 20.7 mph N/A   Overcast
3:55 AM 8.6 °F -8.3 °F 3.2 °F 79% 29.94 in 10.0 mi NNW 15.0 mph 21.9 mph N/A   Overcast
4:15 AM 8.6 °F -7.0 °F 3.2 °F 79% 29.93 in 10.0 mi North 12.7 mph - N/A Rain Light Freezing Rain
4:35 AM 8.6 °F -9.5 °F 3.2 °F 79% 29.93 in 8.0 mi NNW 17.3 mph 24.2 mph N/A Rain Light Freezing Rain
4:55 AM 8.6 °F -9.5 °F 3.2 °F 79% 29.94 in 7.0 mi North 17.3 mph - N/A Rain Light Freezing Rain
5:15 AM 8.6 °F -8.9 °F 5.0 °F 85% 29.94 in 7.0 mi North 16.1 mph - N/A Rain Light Freezing Rain
5:35 AM 8.6 °F -9.5 °F 5.0 °F 85% 29.94 in 5.0 mi North 17.3 mph 21.9 mph N/A   Overcast
5:55 AM 8.6 °F -9.5 °F 3.2 °F 79% 29.93 in 7.0 mi NNW 17.3 mph 23.0 mph N/A   Overcast
6:15 AM 8.6 °F -9.5 °F 3.2 °F 79% 29.94 in 10.0 mi North 17.3 mph 21.9 mph N/A   Overcast
6:35 AM 8.6 °F -10.0 °F 3.2 °F 79% 29.95 in 8.0 mi North 18.4 mph - N/A   Overcast
6:55 AM 8.6 °F -8.3 °F 1.4 °F 73% 29.95 in 10.0 mi North 15.0 mph - N/A   Overcast
7:15 AM 8.6 °F -8.9 °F 1.4 °F 73% 29.95 in 6.0 mi North 16.1 mph 21.9 mph N/A Rain Light Freezing Rain
7:35 AM 8.6 °F -7.0 °F 1.4 °F 73% 29.95 in 9.0 mi North 12.7 mph - N/A Snow Light Snow
7:55 AM 6.8 °F -10.7 °F 1.4 °F 79% 29.95 in 9.0 mi North 15.0 mph - N/A   Overcast
8:15 AM 6.8 °F -10.0 °F 1.4 °F 79% 29.94 in 8.0 mi North 13.8 mph 18.4 mph N/A Snow Light Snow
8:35 AM 6.8 °F -10.0 °F 1.4 °F 79% 29.94 in 6.0 mi North 13.8 mph 18.4 mph N/A Rain Light Freezing Rain
8:55 AM 6.8 °F -11.3 °F 1.4 °F 79% 29.94 in 7.0 mi NNW 16.1 mph 19.6 mph N/A Rain Light Freezing Rain
9:15 AM 6.8 °F -8.6 °F 1.4 °F 79% 29.93 in 4.0 mi NNW 11.5 mph - N/A Rain Light Freezing Rain
9:35 AM 6.8 °F -10.0 °F 1.4 °F 79% 29.93 in 2.0 mi NNW 13.8 mph - N/A Snow Light Snow
9:55 AM 6.8 °F -9.3 °F 1.4 °F 79% 29.93 in 3.0 mi NNW 12.7 mph 20.7 mph N/A Snow Light Snow
10:15 AM 6.8 °F -10.7 °F -0.4 °F 72% 29.92 in 5.0 mi NNW 15.0 mph - N/A Snow Light Snow
10:35 AM 5.0 °F -12.3 °F -0.4 °F 78% 29.92 in 9.0 mi NNW 13.8 mph 20.7 mph N/A   Overcast
10:55 AM 5.0 °F -12.3 °F -0.4 °F 78% 29.92 in 6.0 mi NNW 13.8 mph 19.6 mph N/A   Haze
11:15 AM 5.0 °F -15.2 °F -0.4 °F 78% 29.91 in 3.0 mi NNW 19.6 mph - N/A Snow Light Snow
11:35 AM 5.0 °F -12.3 °F -0.4 °F 78% 29.91 in 4.0 mi NNW 13.8 mph - N/A Snow Light Snow
11:55 AM 5.0 °F -12.3 °F -0.4 °F 78% 29.91 in 3.0 mi NW 13.8 mph - N/A Rain Light Freezing Rain
12:15 PM 5.0 °F -13.0 °F -0.4 °F 78% 29.90 in 2.0 mi NW 15.0 mph - N/A Rain Light Freezing Rain
12:35 PM 5.0 °F -12.3 °F -0.4 °F 78% 29.90 in 2.5 mi NNW 13.8 mph - N/A Rain Light Freezing Rain
12:55 PM 5.0 °F -13.0 °F -0.4 °F 78% 29.89 in 6.0 mi NNW 15.0 mph - N/A Snow Light Snow
1:15 PM 5.0 °F -13.0 °F -2.2 °F 72% 29.89 in 5.0 mi NNW 15.0 mph - N/A Rain Light Freezing Rain
1:35 PM 5.0 °F -12.3 °F -0.4 °F 78% 29.89 in 3.0 mi NNW 13.8 mph - N/A Snow Light Snow
1:55 PM 5.0 °F -13.0 °F -2.2 °F 72% 29.89 in 5.0 mi NNW 15.0 mph - N/A Rain Light Freezing Rain
2:15 PM 5.0 °F -13.0 °F -2.2 °F 72% 29.88 in 4.0 mi NNW 15.0 mph - N/A Rain Light Freezing Rain
2:35 PM 5.0 °F -13.6 °F -2.2 °F 72% 29.89 in 5.0 mi NNW 16.1 mph - N/A Rain Light Freezing Rain
2:55 PM 3.2 °F -16.5 °F -2.2 °F 78% 29.89 in 4.0 mi NNW 17.3 mph 21.9 mph N/A Rain Light Freezing Rain
3:15 PM 3.2 °F -15.9 °F -2.2 °F 78% 29.89 in 4.0 mi NNW 16.1 mph - N/A Rain Light Freezing Rain
3:35 PM 1.4 °F -18.2 °F -4.0 °F 78% 29.89 in 5.0 mi NNW 16.1 mph - N/A Rain Light Freezing Rain
3:55 PM 1.4 °F -16.9 °F -4.0 °F 78% 29.89 in 4.0 mi NNW 13.8 mph - N/A Rain Light Freezing Rain
4:15 PM 1.4 °F -18.2 °F -2.2 °F 85% 29.89 in 3.0 mi NW 16.1 mph - N/A Rain Light Freezing Rain
4:35 PM 1.4 °F -15.3 °F -2.2 °F 85% 29.89 in 2.5 mi NNW 11.5 mph - N/A Snow Light Snow
4:55 PM 1.4 °F -18.2 °F -2.2 °F 85% 29.89 in 2.0 mi NNW 16.1 mph 20.7 mph N/A Snow Light Snow
5:15 PM 1.4 °F -17.6 °F -4.0 °F 78% 29.90 in 2.0 mi NNW 15.0 mph - N/A Snow Light Snow
5:35 PM 1.4 °F -16.1 °F -2.2 °F 85% 29.91 in 0.8 mi NNW 12.7 mph - N/A Snow Light Snow
5:55 PM -0.4 °F -21.7 °F -4.0 °F 85% 29.91 in 1.2 mi NNW 18.4 mph 21.9 mph N/A Rain Light Freezing Rain
6:15 PM -0.4 °F -21.2 °F -5.8 °F 78% 29.91 in 4.0 mi NNW 17.3 mph 24.2 mph N/A Rain Light Freezing Rain
6:35 PM -0.4 °F -21.7 °F -4.0 °F 85% 29.92 in 2.0 mi North 18.4 mph 23.0 mph N/A Snow Light Snow
6:55 PM -0.4 °F -21.7 °F -5.8 °F 78% 29.92 in 4.0 mi NNW 18.4 mph - N/A Rain Light Freezing Rain
7:15 PM -0.4 °F -21.7 °F -5.8 °F 78% 29.92 in 4.0 mi NNW 18.4 mph 23.0 mph N/A Rain Light Freezing Rain
7:35 PM -0.4 °F -20.5 °F -5.8 °F 78% 29.92 in 1.8 mi NNW 16.1 mph 24.2 mph N/A Rain Light Freezing Rain
7:55 PM -0.4 °F -20.5 °F -4.0 °F 85% 29.92 in 1.2 mi NNW 16.1 mph 20.7 mph N/A Rain Light Freezing Rain
8:15 PM -0.4 °F -21.2 °F -5.8 °F 78% 29.93 in 0.8 mi North 17.3 mph - N/A Rain Light Freezing Rain
8:35 PM -2.2 °F -23.5 °F -5.8 °F 85% 29.93 in 1.2 mi North 17.3 mph 25.3 mph N/A Rain Light Freezing Rain
8:55 PM -2.2 °F -22.2 °F -7.6 °F 78% 29.93 in 1.8 mi North 15.0 mph 23.0 mph N/A Rain Light Freezing Rain
9:15 PM -2.2 °F -22.2 °F -7.6 °F 78% 29.93 in 1.2 mi NNW 15.0 mph 21.9 mph N/A Rain Light Freezing Rain
9:35 PM -2.2 °F -24.1 °F -7.6 °F 78% 29.94 in 1.8 mi NNW 18.4 mph 23.0 mph N/A Rain Light Freezing Rain
9:55 PM -2.2 °F -23.5 °F -7.6 °F 78% 29.94 in 2.0 mi NNW 17.3 mph 24.2 mph N/A Rain Light Freezing Rain
10:15 PM -2.2 °F -24.1 °F -9.4 °F 71% 29.95 in 3.0 mi NNW 18.4 mph 23.0 mph N/A Rain Light Freezing Rain
10:35 PM -2.2 °F -23.5 °F -9.4 °F 71% 29.95 in 3.0 mi NNW 17.3 mph 25.3 mph N/A Rain Light Freezing Rain
10:55 PM -4.0 °F -24.5 °F -9.4 °F 78% 29.95 in 2.0 mi NNW 15.0 mph 25.3 mph N/A Rain Light Freezing Rain
11:15 PM -4.0 °F -25.8 °F -9.4 °F 78% 29.96 in 1.8 mi NNW 17.3 mph 21.9 mph N/A Rain Light Freezing Rain
11:35 PM -4.0 °F -27.0 °F -9.4 °F 78% 29.96 in 1.8 mi NNW 19.6 mph 26.5 mph N/A Rain Light Freezing Rain
11:55 PM -4.0 °F -26.4 °F -11.2 °F 71% 29.97 in 4.0 mi NNW 18.4 mph 27.6 mph N/A Rain Light Freezing Rain